STARLINK-31683 (59573 NORAD) Tracking and Keplerian Element Data

This shows tracking and keplerian element data for the satellite.

Feedback or suggestion? Click here.




ElementValue
Catalog59573
NameSTARLINK-31683
Epoch Orbit824
Epoch Day159.7031375
Epoch Year2024
RAAN56.3211
Inclination43.0012
Eccentricity0.0001268
Argument of Perigee270.3086
Mean Anonmoly89.7626
Mean Motion15.40693854
Decay Rate-3.366E-05
L11 59573U 24076K 24159.70313750 -.00003366 00000+0 -73360-4 0 9997
L22 59573 43.0012 56.3211 0001268 270.3086 89.7626 15.40693854 8249



Live tracking and technical data element details for STARLINK-31683 (NORAD 59573). STARLINK-31683 can be tracked NOW for your location showing map with azimuth and elevation plus other details from your city location.







IsCatalogInMostPopularTable: catalog: 59573, numindb: 12
Update: records affected: 1



GetName: 59573 STARLINK-31683

Hit Count: updated at: Fri, 14 Jun 2024 19:27:16 GMT